Regional Weather Roundup
Issued by NWS

Home | Current Version | Previous Version | Text Only | Print | Product List | Glossary Off
Versions: 1 2 3 4 5 6 7 8 9 10 11 12 13 14 15 16 17 18 19 20 21 22 23 24 25 26 27 28 29 30 31 32 33 34 35 36 37 38 39 40 41 42 43 44 45 46 47 48 49 50

000
ASUS43 KBIS 042302
RWRND

NORTH DAKOTA REGIONAL WEATHER ROUNDUP
NATIONAL WEATHER SERVICE BISMARCK ND
600 PM CDT FRI SEP 04 2015

NOTE: "FAIR" INDICATES FEW OR NO CLOUDS BELOW 12,000 FEET WITH NO
SIGNIFICANT WEATHER AND/OR OBSTRUCTIONS TO VISIBILITY.


NDZ001>003-009>011-017-050000-
NORTHWEST NORTH DAKOTA

CITY           SKY/WX    TMP DP  RH WIND       PRES   REMARKS
WILLISTON      SUNNY     76  57  51 NE14      29.85S
MINOT          PTSUNNY   68  58  70 N17       29.84R
$$

NDZ018>021-031>035-040>046-050000-
SOUTHWEST NORTH DAKOTA

CITY           SKY/WX    TMP DP  RH WIND       PRES   REMARKS
BISMARCK       SUNNY     88  67  49 CALM      29.78R HX  91
DICKINSON      SUNNY     79  64  60 N9        29.81F
GARRISON         N/A     77  63  61 NE13G20   29.82R
HETTINGER ARPT SUNNY     90  54  29 S7        29.79F
$$

NDZ004>008-012>016-024-026-027-054-050000-
NORTHEAST NORTH DAKOTA

CITY           SKY/WX    TMP DP  RH WIND       PRES   REMARKS
GRAND FORKS    CLOUDY    80  67  64 S8        29.81R
GRND FRKS AFB  CLOUDY    70  66  87 N10       29.83R
DEVILS LAKE    CLOUDY    73  63  68 SE12      29.79S
$$

NDZ022-023-025-028>030-036>039-047>053-050000-
SOUTHEAST NORTH DAKOTA

CITY           SKY/WX    TMP DP  RH WIND       PRES   REMARKS
FARGO          CLOUDY    78  71  79 E7        29.82R
JAMESTOWN      CLOUDY    82  68  62 SE13      29.80R
$$




USA.gov is the U.S. government's official web portal to all federal, state and local government web resources and services.